AUL145 ULAA-ULLI

Flight info

Callsign AUL145
Flight time N/A
Altitude 36000
Route MAKOG T821 ROGID M856 GIKUR T458 BEPOL
Aircraft B738/M-SDE2E3FGHIRWXY/LB1

Departure

Time 2026-05-01 11:02
Airport Talagi Airport (ULAA)

Arrival

Time N/A
Airport Pulkovo Airport (ULLI)
Time Latitude Longitude Altitude Speed Heading
2026-05-01 10:33 64.59666 40.71389 39 ft 0 kts 186°
2026-05-01 10:51 64.59677 40.71391 39 ft 2 kts 171°
2026-05-01 10:51 64.59694 40.71381 38 ft 2 kts 153°
2026-05-01 10:51 64.59707 40.71359 38 ft 2 kts 131°
2026-05-01 10:51 64.59718 40.71322 39 ft 3 kts 114°
2026-05-01 10:52 64.59726 40.71271 39 ft 3 kts 102°
2026-05-01 10:52 64.59729 40.71229 39 ft 2 kts 98°
2026-05-01 10:52 64.59730 40.71202 39 ft 2 kts 96°
2026-05-01 10:52 64.59732 40.71176 39 ft 2 kts 95°
2026-05-01 10:53 64.59732 40.71164 39 ft 0 kts 95°
2026-05-01 10:54 64.59732 40.71172 39 ft 1 kts 95°
2026-05-01 10:55 64.59731 40.71206 39 ft 3 kts 89°
2026-05-01 10:55 64.59744 40.71254 37 ft 4 kts 34°
2026-05-01 10:55 64.59778 40.71274 39 ft 6 kts
2026-05-01 10:55 64.59802 40.71282 37 ft 4 kts
2026-05-01 10:56 64.59826 40.71324 39 ft 5 kts 68°
2026-05-01 10:56 64.59827 40.71430 39 ft 8 kts 95°
2026-05-01 10:56 64.59820 40.71580 39 ft 11 kts 96°
2026-05-01 10:56 64.59811 40.71774 38 ft 13 kts 96°
2026-05-01 10:57 64.59800 40.72001 39 ft 15 kts 96°
2026-05-01 10:57 64.59788 40.72246 39 ft 14 kts 96°
2026-05-01 10:57 64.59778 40.72451 39 ft 10 kts 96°
2026-05-01 10:57 64.59769 40.72634 39 ft 12 kts 96°
2026-05-01 10:58 64.59758 40.72848 39 ft 14 kts 96°
2026-05-01 10:58 64.59746 40.73091 39 ft 16 kts 96°
2026-05-01 10:58 64.59734 40.73344 39 ft 13 kts 96°
2026-05-01 10:58 64.59723 40.73575 39 ft 15 kts 97°
2026-05-01 10:59 64.59703 40.73830 39 ft 17 kts 98°
2026-05-01 10:59 64.59692 40.74044 39 ft 7 kts 96°
2026-05-01 10:59 64.59698 40.74156 37 ft 8 kts 51°
2026-05-01 10:59 64.59753 40.74194 39 ft 9 kts
2026-05-01 11:00 64.59794 40.74204 39 ft 5 kts
2026-05-01 11:00 64.59842 40.74216 38 ft 9 kts
2026-05-01 11:00 64.59896 40.74207 36 ft 2 kts 329°
2026-05-01 11:00 64.59907 40.74166 35 ft 4 kts 282°
2026-05-01 11:01 64.59908 40.74124 35 ft 3 kts 276°
2026-05-01 11:01 64.59913 40.74033 31 ft 17 kts 276°
2026-05-01 11:01 64.59958 40.73116 38 ft 95 kts 276°
2026-05-01 11:01 64.60054 40.71047 91 ft 154 kts 274°
2026-05-01 11:02 64.60163 40.68548 844 ft 150 kts 276°
2026-05-01 11:02 64.60247 40.66313 1893 ft 137 kts 280°
2026-05-01 11:02 64.60388 40.64050 2552 ft 151 kts 282°
2026-05-01 11:02 64.60536 40.61334 2897 ft 185 kts 279°
2026-05-01 11:03 64.60688 40.58130 3172 ft 211 kts 279°
2026-05-01 11:03 64.60855 40.54601 3545 ft 233 kts 279°
2026-05-01 11:03 64.61037 40.50781 4369 ft 239 kts 279°
2026-05-01 11:03 64.61169 40.46901 5330 ft 243 kts 269°
2026-05-01 11:04 64.60657 40.43065 6144 ft 257 kts 243°
2026-05-01 11:04 64.59552 40.39692 6976 ft 265 kts 233°
2026-05-01 11:04 64.58309 40.36458 7816 ft 271 kts 231°
2026-05-01 11:04 64.57021 40.33194 8629 ft 276 kts 231°
2026-05-01 11:05 64.55705 40.29868 9446 ft 282 kts 231°
2026-05-01 11:05 64.54369 40.26479 10234 ft 287 kts 231°
2026-05-01 11:05 64.52974 40.22924 10534 ft 310 kts 231°
2026-05-01 11:05 64.51486 40.19122 11057 ft 323 kts 231°
2026-05-01 11:06 64.49957 40.15223 11846 ft 328 kts 231°
2026-05-01 11:06 64.48412 40.11285 12679 ft 332 kts 231°
2026-05-01 11:06 64.47377 40.08647 13222 ft 335 kts 231°
2026-05-01 11:07 64.44184 40.00513 14764 ft 346 kts 231°
2026-05-01 11:07 64.42554 39.96370 15559 ft 350 kts 231°
2026-05-01 11:07 64.40904 39.92180 16332 ft 355 kts 232°
2026-05-01 11:07 64.39228 39.87931 17110 ft 360 kts 232°
2026-05-01 11:08 64.37530 39.83637 17874 ft 365 kts 232°
2026-05-01 11:08 64.35806 39.79284 18587 ft 370 kts 232°
2026-05-01 11:08 64.32283 39.70413 19866 ft 380 kts 232°
2026-05-01 11:09 64.30486 39.65903 20501 ft 385 kts 232°
2026-05-01 11:09 64.28661 39.61333 21135 ft 390 kts 232°
2026-05-01 11:09 64.26815 39.56718 21754 ft 395 kts 232°
2026-05-01 11:10 64.23042 39.47320 22970 ft 404 kts 232°
2026-05-01 11:10 64.21146 39.42614 23553 ft 409 kts 232°
2026-05-01 11:10 64.19201 39.37793 24045 ft 413 kts 232°
2026-05-01 11:10 64.17238 39.32943 24543 ft 417 kts 232°
2026-05-01 11:11 64.15257 39.28060 25059 ft 420 kts 232°
2026-05-01 11:11 64.13255 39.23134 25537 ft 423 kts 232°
2026-05-01 11:11 64.11238 39.18179 26005 ft 427 kts 232°
2026-05-01 11:11 64.09198 39.13176 26445 ft 431 kts 232°
2026-05-01 11:12 64.07139 39.08143 26910 ft 435 kts 232°
2026-05-01 11:12 64.05289 39.03466 27310 ft 436 kts 236°
2026-05-01 11:12 64.04919 39.02462 27391 ft 436 kts 236°
2026-05-01 11:12 64.03024 38.97033 27805 ft 438 kts 238°
2026-05-01 11:13 64.01174 38.91475 28244 ft 441 kts 239°
2026-05-01 11:13 63.99325 38.85862 28654 ft 445 kts 239°
2026-05-01 11:13 63.97454 38.80213 29065 ft 448 kts 239°
2026-05-01 11:13 63.95553 38.74542 29448 ft 452 kts 239°
2026-05-01 11:14 63.93626 38.68853 29837 ft 456 kts 239°
2026-05-01 11:14 63.91700 38.63219 30179 ft 459 kts 238°
2026-05-01 11:14 63.89729 38.57486 30489 ft 462 kts 238°
2026-05-01 11:14 63.89070 38.55576 30602 ft 462 kts 238°
2026-05-01 11:15 63.87975 38.52408 30812 ft 462 kts 238°
2026-05-01 11:15 63.85986 38.46671 31279 ft 461 kts 238°
2026-05-01 11:15 63.84010 38.40986 31771 ft 458 kts 237°
2026-05-01 11:15 63.82041 38.35332 32211 ft 457 kts 237°
2026-05-01 11:16 63.80071 38.29683 32640 ft 457 kts 237°
2026-05-01 11:16 63.78099 38.24037 33034 ft 456 kts 237°
2026-05-01 11:16 63.76133 38.18423 33469 ft 455 kts 237°
2026-05-01 11:16 63.74165 38.12817 33879 ft 454 kts 236°
2026-05-01 11:17 63.72202 38.07241 34253 ft 453 kts 236°
2026-05-01 11:17 63.70243 38.01688 34556 ft 453 kts 236°
2026-05-01 11:17 63.68278 37.96130 34850 ft 453 kts 236°
2026-05-01 11:17 63.66313 37.90589 35158 ft 453 kts 236°
2026-05-01 11:18 63.64347 37.85058 35488 ft 452 kts 236°
2026-05-01 11:18 63.62381 37.79540 35781 ft 452 kts 236°
2026-05-01 11:18 63.60414 37.74034 36031 ft 453 kts 235°
2026-05-01 11:18 63.58427 37.68479 36006 ft 458 kts 235°
2026-05-01 11:19 63.54428 37.57356 36013 ft 456 kts 235°
2026-05-01 11:19 63.50469 37.46403 36008 ft 450 kts 235°
2026-05-01 11:20 63.46526 37.35533 36032 ft 450 kts 235°
2026-05-01 11:20 63.42598 37.24749 36029 ft 451 kts 235°
2026-05-01 11:21 63.38625 37.13916 36034 ft 451 kts 235°
2026-05-01 11:21 63.34639 37.03101 36028 ft 452 kts 235°
2026-05-01 11:22 63.30640 36.92294 36030 ft 452 kts 235°
2026-05-01 11:22 63.26635 36.81513 36031 ft 453 kts 235°
2026-05-01 11:23 63.22616 36.70747 36034 ft 453 kts 234°
2026-05-01 11:23 63.18225 36.60646 36044 ft 458 kts 226°
2026-05-01 11:24 63.13451 36.51282 36032 ft 459 kts 225°
2026-05-01 11:25 63.06299 36.37263 36040 ft 458 kts 226°
2026-05-01 11:25 62.99174 36.23223 36044 ft 458 kts 226°
2026-05-01 11:26 62.92079 36.09327 36051 ft 457 kts 226°
2026-05-01 11:27 62.87323 36.00071 36048 ft 457 kts 226°
2026-05-01 11:27 62.82588 35.90787 36054 ft 456 kts 226°
2026-05-01 11:28 62.77867 35.81510 36055 ft 456 kts 226°
2026-05-01 11:28 62.73139 35.72265 36061 ft 456 kts 226°
2026-05-01 11:29 62.66028 35.58457 36064 ft 457 kts 226°
2026-05-01 11:30 62.58903 35.44718 36063 ft 457 kts 226°
2026-05-01 11:30 62.54139 35.35580 36068 ft 457 kts 226°
2026-05-01 11:31 62.49375 35.26483 36065 ft 457 kts 226°
2026-05-01 11:31 62.44634 35.17466 36069 ft 457 kts 226°
2026-05-01 11:32 62.39854 35.08416 36065 ft 457 kts 225°
2026-05-01 11:32 62.35025 34.99452 36072 ft 458 kts 225°
2026-05-01 11:33 62.30174 34.90568 36075 ft 458 kts 225°
2026-05-01 11:33 62.25316 34.81693 36078 ft 458 kts 225°
2026-05-01 11:34 62.20458 34.72838 36073 ft 458 kts 225°
2026-05-01 11:34 62.15590 34.64001 36073 ft 459 kts 225°
2026-05-01 11:35 62.10719 34.55194 36080 ft 459 kts 225°
2026-05-01 11:35 62.05832 34.46398 36086 ft 459 kts 224°
2026-05-01 11:36 62.00943 34.37636 36103 ft 459 kts 224°
2026-05-01 11:36 61.96084 34.28964 36107 ft 459 kts 224°
2026-05-01 11:37 61.91184 34.20255 36105 ft 459 kts 224°
2026-05-01 11:37 61.86679 34.10826 36107 ft 450 kts 238°
2026-05-01 11:38 61.82927 34.00216 36102 ft 450 kts 239°
2026-05-01 11:38 61.79186 33.89581 36098 ft 451 kts 238°